Snowfall_Accumulation
0.0 0.0 0.0 0.0 0.0 0.0 0.0 0.0 0.0 0.0 0.0 0.0 0.0 0.0 0.0 0.0 0.0 0.0 0.0 nan nan nan nan nan nan nan nan nan nan nan nan nan nan nan nan nan nan nan
0.0 0.0 0.0 0.0 0.0 0.0 0.0 0.0 0.0 0.0 0.0 0.0 0.0 0.0 0.0 0.0 0.0 0.0 0.0 nan nan nan nan nan nan nan nan nan nan nan nan nan nan nan nan nan nan nan
0.0 0.0 0.0 0.0 0.0 0.0 0.0 0.0 0.0 0.0 0.0 0.0 0.0 0.0 0.0 0.0 0.0 0.0 0.0 0.0 0.0 nan nan nan nan nan nan nan nan nan nan nan nan nan nan nan nan nan
0.0 0.0 0.0 0.0 0.0 0.0 0.0 0.0 0.0 0.0 0.0 0.0 0.0 0.0 0.0 0.0 0.0 0.0 0.0 0.0 0.0 nan nan nan nan nan nan nan nan nan nan nan nan nan nan nan nan nan
0.0 0.0 0.0 0.0 0.0 0.0 0.0 0.0 0.0 0.0 0.0 0.0 0.0 0.0 0.0 0.0 0.0 0.0 0.0 0.0 0.0 nan nan nan nan nan nan nan nan nan nan nan nan nan nan nan nan nan
0.0 0.0 0.0 0.0 0.0 0.0 0.0 0.0 0.0 0.0 0.0 0.0 0.0 0.0 0.0 0.0 0.0 0.0 0.0 0.0 0.0 0.0 nan nan nan nan nan nan nan nan nan nan nan nan nan nan nan nan
0.0 0.0 0.0 nan nan nan 0.0 0.0 0.0 0.0 0.0 0.0 0.0 0.0 0.0 0.0 0.0 0.0 0.0 0.0 0.0 0.0 0.0 0.0 0.0 0.0 0.0 nan nan nan nan nan nan nan nan nan nan nan
0.0 0.0 0.0 0.0 0.0 nan nan nan nan 0.0 0.0 0.0 0.0 0.0 0.0 0.0 0.0 0.1 0.2 0.2 0.5 0.0 0.0 0.0 0.0 0.0 0.0 0.0 nan nan nan nan nan nan nan nan nan nan
0.0 0.0 0.0 0.0 nan 0.0 nan nan nan nan nan 0.0 0.0 0.0 0.0 0.0 0.0 0.0 0.0 0.2 0.2 0.0 0.0 0.3 0.0 0.1 0.0 0.0 nan nan nan nan nan nan nan nan nan nan
0.0 0.0 0.0 0.0 0.0 0.0 0.0 0.0 0.0 0.0 0.0 0.0 0.0 0.0 0.0 0.0 0.0 0.0 0.0 0.0 0.1 0.1 0.0 0.7 0.3 0.3 0.1 0.0 nan nan nan nan nan nan nan nan nan nan
0.0 0.0 0.0 0.0 nan nan 0.0 0.0 0.0 0.0 nan nan nan nan nan nan nan 0.1 0.8 1.1 0.7 0.6 0.4 1.1 0.7 1.0 0.7 0.8 0.2 nan nan nan nan nan nan nan nan nan
0.0 0.0 nan 0.0 nan nan 0.0 0.0 0.0 0.0 0.0 0.0 0.0 0.0 nan nan nan 0.0 0.2 1.5 1.5 2.2 0.7 4.6 1.4 1.9 4.1 1.0 0.7 0.4 0.4 nan nan nan nan nan nan 0.3
0.0 0.0 0.0 nan nan nan nan 0.0 0.0 0.0 0.0 0.1 0.1 0.3 0.1 0.1 0.3 0.2 0.0 0.5 1.6 1.9 0.4 0.9 1.2 1.1 1.2 2.9 0.9 1.0 0.7 1.1 0.8 0.6 nan nan nan 0.4
0.0 0.0 0.0 nan nan nan 0.0 nan nan 0.1 0.4 0.5 0.6 0.6 0.5 0.4 0.4 0.3 0.0 0.1 0.3 0.2 0.1 0.0 2.1 1.4 2.0 2.2 4.6 0.9 0.8 0.7 0.7 1.5 1.4 nan nan nan
0.0 0.0 nan nan nan 0.0 nan nan 0.0 0.3 0.4 0.7 0.7 0.7 0.4 0.3 0.1 0.2 0.0 0.0 0.0 0.0 0.0 0.0 0.4 0.1 0.8 1.7 3.6 2.4 2.0 1.2 0.8 1.6 1.7 1.9 2.3 1.7
0.0 0.0 0.0 0.0 0.0 0.0 0.1 0.2 0.2 0.2 0.2 0.3 0.4 0.3 0.2 0.3 0.3 0.2 0.3 0.3 0.3 0.4 0.0 0.0 0.0 0.0 0.8 0.8 0.9 2.2 1.2 2.3 1.6 2.1 1.6 1.9 1.4 1.8
0.0 0.1 0.1 0.1 0.2 0.2 0.2 0.2 0.2 0.2 0.3 0.3 0.4 0.4 0.3 0.3 0.2 0.2 0.2 0.3 0.5 0.6 0.8 0.5 0.0 0.0 0.3 0.1 2.1 1.7 2.1 1.7 1.4 1.7 1.1 2.3 2.9 3.7
0.1 0.2 0.3 0.3 0.3 0.2 0.3 0.3 0.3 0.2 0.3 0.2 0.3 0.3 0.4 0.4 0.3 0.3 0.3 0.4 0.8 0.7 0.7 0.8 0.6 0.7 0.7 1.0 0.5 1.7 1.6 1.5 1.6 1.0 1.3 1.8 2.3 1.8
0.2 0.2 0.3 0.3 0.3 0.2 0.2 0.2 0.3 0.3 0.0 0.3 0.3 0.4 0.4 0.4 0.5 0.4 0.4 0.4 0.8 0.7 0.8 0.7 0.8 0.8 1.8 6.3 2.1 nan 1.7 1.4 1.7 2.0 1.2 1.8 3.1 4.6
0.0 0.1 0.2 0.2 0.1 0.2 0.2 0.2 0.3 0.3 0.3 0.3 0.4 0.4 0.6 0.6 0.7 0.7 0.6 0.9 0.9 0.9 0.9 0.7 0.8 0.7 1.1 4.0 6.7 5.2 nan 0.9 0.8 1.9 2.7 1.5 1.0 nan
0.1 0.1 0.1 0.1 0.1 0.1 0.2 0.3 0.2 0.4 0.4 0.6 0.4 0.7 1.7 0.6 0.7 0.6 0.6 0.4 0.4 0.8 1.0 1.0 0.8 0.0 0.4 0.3 7.1 4.0 2.8 nan 0.1 0.3 0.4 1.0 1.2 1.3
0.1 0.1 0.1 0.1 0.1 0.2 0.3 0.4 0.5 0.5 0.4 0.5 0.8 1.7 1.6 0.6 0.8 0.9 0.8 0.9 0.8 0.5 0.6 0.6 0.6 0.5 0.4 0.3 1.6 2.9 1.8 1.7 nan nan nan nan 1.1 5.0
0.2 0.1 0.2 0.2 0.2 0.2 0.3 0.3 0.3 0.4 0.4 0.5 0.5 0.6 7.9 1.2 0.6 0.6 0.6 0.5 0.4 0.7 0.6 1.0 0.7 0.4 0.5 0.4 0.6 1.8 0.6 2.0 0.8 0.8 2.4 nan nan nan
Water_Equivalent
0.00 0.00 0.00 0.00 0.00 0.00 0.00 0.00 0.00 0.00 0.00 0.00 0.00 0.00 0.00 0.00 0.00 0.00 0.00 nan nan nan nan nan nan nan nan nan nan nan nan nan nan nan nan nan nan nan
0.00 0.00 0.00 0.00 0.00 0.00 0.00 0.00 0.00 0.00 0.00 0.00 0.00 0.00 0.00 0.00 0.00 0.00 0.00 nan nan nan nan nan nan nan nan nan nan nan nan nan nan nan nan nan nan nan
0.00 0.00 0.00 0.00 0.00 0.00 0.00 0.00 0.00 0.00 0.00 0.00 0.00 0.00 0.00 0.00 0.00 0.00 0.00 0.00 0.00 nan nan nan nan nan nan nan nan nan nan nan nan nan nan nan nan nan
0.00 0.00 0.00 0.00 0.00 0.00 0.00 0.00 0.00 0.00 0.00 0.00 0.00 0.00 0.00 0.00 0.00 0.00 0.00 0.00 0.00 nan nan nan nan nan nan nan nan nan nan nan nan nan nan nan nan nan
0.00 0.00 0.00 0.00 0.00 0.00 0.00 0.00 0.00 0.00 0.00 0.00 0.00 0.00 0.00 0.00 0.00 0.00 0.00 0.00 0.00 nan nan nan nan nan nan nan nan nan nan nan nan nan nan nan nan nan
0.00 0.00 0.00 0.00 0.00 0.00 0.00 0.00 0.00 0.00 0.00 0.00 0.00 0.00 0.00 0.00 0.00 0.00 0.00 0.00 0.00 0.00 nan nan nan nan nan nan nan nan nan nan nan nan nan nan nan nan
0.00 0.00 0.00 nan nan nan 0.00 0.00 0.00 0.00 0.00 0.00 0.00 0.00 0.00 0.02 0.01 0.01 0.01 0.00 0.00 0.00 0.00 0.00 0.00 0.00 0.00 nan nan nan nan nan nan nan nan nan nan nan
0.00 0.00 0.00 0.00 0.00 nan nan nan nan 0.00 0.00 0.00 0.00 0.01 0.00 0.00 0.00 0.02 0.07 0.09 0.18 0.00 0.00 0.01 0.00 0.00 0.00 0.00 nan nan nan nan nan nan nan nan nan nan
0.00 0.00 0.00 0.00 nan 0.00 nan nan nan nan nan 0.00 0.00 0.00 0.00 0.00 0.00 0.00 0.00 0.05 0.07 0.01 0.00 0.11 0.00 0.02 0.00 0.00 nan nan nan nan nan nan nan nan nan nan
0.00 0.00 0.00 0.00 0.00 0.00 0.00 0.00 0.00 0.00 0.00 0.00 0.00 0.00 0.00 0.00 0.00 0.00 0.00 0.00 0.03 0.04 0.01 0.25 0.10 0.14 0.02 0.00 nan nan nan nan nan nan nan nan nan nan
0.00 0.00 0.00 0.00 nan nan 0.00 0.00 0.00 0.00 nan nan nan nan nan nan nan 0.06 0.31 0.37 0.28 0.23 0.16 0.41 0.29 0.38 0.27 0.32 0.07 nan nan nan nan nan nan nan nan nan
0.00 0.00 nan 0.00 nan nan 0.00 0.00 0.00 0.01 0.00 0.00 0.00 0.00 nan nan nan 0.00 0.10 0.42 0.54 0.79 0.29 1.44 0.57 0.70 1.30 0.41 0.27 0.17 0.15 nan nan nan nan nan nan 0.12
0.00 0.00 0.00 nan nan nan nan 0.00 0.00 0.00 0.02 0.04 0.06 0.11 0.05 0.03 0.12 0.09 0.01 0.17 0.52 0.72 0.18 0.33 0.47 0.46 0.45 0.92 0.36 0.40 0.29 0.44 0.33 0.26 nan nan nan 0.14
0.00 0.00 0.00 nan nan nan 0.01 nan nan 0.02 0.15 0.22 0.22 0.26 0.20 0.18 0.15 0.12 0.00 0.05 0.10 0.08 0.03 0.00 0.77 0.47 0.61 0.73 1.24 0.32 0.31 0.29 0.29 0.55 0.53 nan nan nan
0.00 0.00 nan nan nan 0.00 nan nan 0.00 0.11 0.16 0.27 0.28 0.28 0.17 0.12 0.03 0.06 0.00 0.00 0.00 0.00 0.00 0.00 0.18 0.05 0.30 0.54 0.94 0.66 0.58 0.39 0.29 0.55 0.56 0.62 0.76 0.55
0.00 0.01 0.00 0.02 0.00 0.02 0.04 0.07 0.07 0.08 0.10 0.13 0.15 0.11 0.09 0.12 0.13 0.08 0.11 0.11 0.13 0.18 0.00 0.00 0.00 0.00 0.27 0.26 0.28 0.61 0.35 0.60 0.49 0.66 0.51 0.62 0.47 0.57
0.01 0.03 0.06 0.06 0.07 0.06 0.07 0.08 0.08 0.08 0.11 0.12 0.15 0.14 0.12 0.10 0.10 0.07 0.09 0.11 0.16 0.19 0.27 0.18 0.00 0.00 0.10 0.03 0.58 0.48 0.56 0.45 0.40 0.49 0.33 0.67 0.83 1.13
0.04 0.06 0.11 0.11 0.11 0.09 0.11 0.12 0.11 0.09 0.10 0.10 0.12 0.11 0.13 0.14 0.13 0.12 0.11 0.15 0.23 0.21 0.22 0.24 0.19 0.20 0.21 0.27 0.17 0.47 0.47 0.40 0.46 0.29 0.37 0.47 0.57 0.49
0.08 0.09 0.12 0.13 0.11 0.09 0.09 0.10 0.14 0.11 0.00 0.11 0.13 0.14 0.15 0.15 0.19 0.16 0.17 0.17 0.27 0.23 0.25 0.22 0.24 0.25 0.47 1.22 0.58 nan 0.45 0.39 0.50 0.54 0.33 0.47 0.75 1.16
0.01 0.06 0.08 0.07 0.05 0.07 0.08 0.09 0.11 0.13 0.12 0.12 0.15 0.18 0.25 0.23 0.26 0.23 0.21 0.30 0.27 0.29 0.27 0.23 0.24 0.23 0.29 0.96 1.74 1.41 nan 0.29 0.24 0.48 0.66 0.39 0.28 nan
0.02 0.04 0.03 0.04 0.05 0.05 0.09 0.13 0.08 0.16 0.15 0.23 0.17 0.29 0.67 0.21 0.27 0.22 0.22 0.13 0.13 0.24 0.28 0.30 0.25 0.00 0.13 0.11 1.95 1.12 0.85 nan 0.05 0.09 0.12 0.27 0.31 0.32
0.04 0.04 0.03 0.03 0.05 0.07 0.11 0.18 0.20 0.21 0.14 0.18 0.32 0.69 0.63 0.24 0.29 0.30 0.30 0.33 0.27 0.18 0.20 0.20 0.17 0.16 0.13 0.11 0.38 0.80 0.51 0.49 nan nan nan nan 0.30 1.05
0.09 0.05 0.07 0.09 0.09 0.10 0.10 0.14 0.13 0.16 0.16 0.18 0.19 0.22 3.16 0.43 0.23 0.21 0.22 0.20 0.15 0.22 0.19 0.30 0.20 0.13 0.17 0.14 0.17 0.49 0.16 0.55 0.23 0.23 0.60 nan nan nan
SL_Ratio
nan nan nan nan nan nan nan nan nan nan nan nan nan nan nan nan nan nan nan nan nan nan nan nan nan nan nan nan nan nan nan nan nan nan nan nan nan nan
nan nan nan nan nan nan nan nan nan nan nan nan nan nan nan nan nan nan nan nan nan nan nan nan nan nan nan nan nan nan nan nan nan nan nan nan nan nan
nan nan nan nan nan nan nan nan nan nan nan nan nan nan nan nan nan nan nan nan nan nan nan nan nan nan nan nan nan nan nan nan nan nan nan nan nan nan
nan nan nan nan nan nan nan nan nan nan nan nan nan nan nan nan nan nan nan nan nan nan nan nan nan nan nan nan nan nan nan nan nan nan nan nan nan nan
nan nan nan nan nan nan nan nan nan nan nan nan nan nan nan nan nan nan nan nan nan nan nan nan nan nan nan nan nan nan nan nan nan nan nan nan nan nan
nan nan nan nan nan nan nan nan nan nan nan nan nan nan nan nan nan nan 2.0 nan nan nan nan nan nan nan nan nan nan nan nan nan nan nan nan nan nan nan
nan nan nan nan nan nan nan nan nan nan nan nan nan nan nan 2.6 2.5 2.5 2.3 nan nan nan nan nan nan nan nan nan nan nan nan nan nan nan nan nan nan nan
nan nan nan nan nan nan nan nan nan nan nan nan nan 2.7 nan nan 1.7 2.5 2.5 2.5 2.9 2.5 nan 2.4 nan nan nan nan nan nan nan nan nan nan nan nan nan nan
nan nan nan nan nan nan nan nan nan nan nan nan nan nan nan nan nan 0.0 nan 2.9 2.9 2.3 nan 2.5 nan 2.4 2.5 nan nan nan nan nan nan nan nan nan nan nan
nan nan nan nan nan nan nan nan nan nan nan nan nan nan nan nan nan nan nan nan 2.5 2.5 2.6 2.9 2.5 2.5 2.6 nan nan nan nan nan nan nan nan nan nan nan
nan nan nan nan nan nan nan nan nan nan nan nan nan nan nan nan nan 2.5 2.5 3.0 2.5 2.5 2.5 2.6 2.5 2.5 2.5 2.5 2.5 nan nan nan nan nan nan nan nan nan
nan nan nan nan nan nan nan nan nan 2.5 nan 5.0 2.5 nan nan nan nan nan 2.5 3.6 2.7 2.8 2.5 3.2 2.5 2.7 3.2 2.5 2.5 2.5 2.5 nan nan nan nan nan nan 2.7
nan nan nan nan nan nan nan nan nan nan 2.5 2.5 2.5 2.5 2.5 2.5 2.5 2.5 2.6 2.7 3.0 2.6 2.5 2.8 2.5 2.5 2.7 3.1 2.5 2.5 2.5 2.5 2.5 2.5 nan nan nan 2.8
nan nan nan nan nan nan 2.5 nan nan 2.5 2.5 2.5 2.5 2.5 2.5 2.5 2.5 2.5 nan 2.5 2.5 2.7 2.6 3.3 2.7 3.0 3.3 3.1 3.7 2.8 2.7 2.5 2.5 2.7 2.6 nan nan nan
nan nan nan nan nan nan nan nan nan 2.5 2.5 2.5 2.5 2.5 2.5 2.5 2.6 2.5 nan nan nan nan nan nan 2.5 2.7 2.8 3.2 3.8 3.6 3.4 3.0 2.8 2.9 3.0 3.0 3.0 3.1
nan 2.5 nan 2.6 nan 2.5 2.5 2.5 2.5 2.5 2.5 2.5 2.5 2.5 2.5 2.5 2.5 2.5 2.5 2.5 2.5 2.5 nan nan nan nan 2.8 3.0 3.2 3.6 3.5 3.9 3.2 3.2 3.2 3.1 3.1 3.1
2.6 2.5 2.5 2.5 2.5 2.5 2.5 2.5 2.5 2.5 2.5 2.5 2.5 2.5 2.5 2.5 2.5 2.5 2.5 2.5 2.9 3.1 3.0 2.7 3.3 1.7 2.8 3.3 3.7 3.6 3.8 3.7 3.4 3.4 3.4 3.5 3.5 3.3
2.5 2.5 2.5 2.5 2.5 2.5 2.5 2.5 2.5 2.5 2.5 2.5 2.5 2.5 2.6 2.6 2.7 2.6 2.5 2.5 3.3 3.1 3.2 3.2 3.1 3.3 3.5 3.6 2.9 3.5 3.5 3.6 3.4 3.3 3.4 3.7 4.1 3.7
2.5 2.5 2.5 2.5 2.5 2.5 2.5 2.5 2.5 2.5 2.5 2.5 2.5 2.5 2.5 2.5 2.6 2.7 2.5 2.6 2.9 2.9 3.1 3.1 3.2 3.3 3.8 5.1 3.6 nan 3.7 3.5 3.5 3.6 3.6 3.8 4.1 4.0
2.7 2.5 2.5 2.5 2.5 2.5 2.5 2.5 2.5 2.5 2.5 2.5 2.5 2.5 2.5 2.7 2.8 2.9 2.8 3.0 3.2 3.2 3.3 3.0 3.2 3.3 3.7 4.1 3.8 3.7 nan 3.2 3.4 3.9 4.2 3.8 3.5 nan
2.4 2.5 2.5 2.5 2.5 2.5 2.5 2.5 2.5 2.5 2.5 2.5 2.5 2.5 2.5 2.8 2.8 2.8 2.8 2.9 3.0 3.2 3.5 3.4 3.2 nan 3.0 3.1 3.6 3.6 3.3 nan 3.0 3.4 3.6 3.8 4.0 4.1
2.5 2.6 2.5 2.5 2.5 2.5 2.5 2.5 2.5 2.5 2.5 2.5 2.5 2.5 2.5 2.6 2.9 2.9 2.8 2.9 3.1 2.9 3.1 3.1 3.2 3.2 3.3 3.2 4.1 3.6 3.6 3.4 nan nan nan nan 3.7 4.8
2.5 2.6 2.5 2.5 2.5 2.5 2.5 2.5 2.6 2.5 2.5 2.5 2.5 2.5 2.5 2.8 2.6 2.7 2.7 2.7 2.8 3.0 3.0 3.4 3.3 3.3 3.2 3.2 3.3 3.7 4.0 3.6 3.5 3.5 4.0 nan nan nan